Date String (YYYY-MM-DD hh:mm:ss) UTC,Instrument flags,Ambient pressure (hPa),Sample flow (lpm),Bypass flow (lpm),Sample temperature (°C),Ambient temperature (°C),ASC tube jacket temperature (°C),LED temperature (°C),Box temperature (°C),Sample RH (%),Span deviation,Mass concentration (μg/m³),Mass concentration (μg/m³),Mass concentration (μg/m³)
DateTimeUTC,F1_M11,P_M11,Q1_M11,Q2_M11,T1_M11,T2_M11,T3_M11,T4_M11,T5_M11,U1_M11,ZSPAN_M11,X0_M11,X2_M11,X1_M11
2022-07-18 18:00:00,,0827.2,4.99,0.00,29.4,27.5,00.0,38.1,31.2,28.1,0000.0,0023.57,0007.42,0005.94
2022-07-18 18:01:00,,0827.2,5.00,0.00,29.4,27.7,00.0,38.1,31.2,28.8,0000.0,0023.12,0007.29,0005.92
2022-07-18 18:02:00,,0827.2,5.01,0.00,29.4,27.9,00.0,38.1,31.3,28.6,0000.0,0022.73,0007.17,0005.92
2022-07-18 18:03:00,,0827.2,4.99,0.00,29.5,28.1,00.0,38.1,31.4,29.2,0000.0,0023.69,0007.18,0005.92
2022-07-18 18:04:00,,0827.1,5.00,0.00,29.5,27.8,00.0,38.1,31.4,28.6,0000.0,0024.82,0007.20,0005.92
2022-07-18 18:05:00,,0827.1,5.01,0.00,29.5,27.4,00.0,38.0,31.3,28.7,0000.0,0024.53,0007.23,0005.91
2022-07-18 18:06:00,,0827.1,5.01,0.00,29.4,27.3,00.0,38.0,31.3,28.1,0000.0,0023.40,0007.21,0005.89
2022-07-18 18:07:00,,0827.0,5.00,0.00,29.4,27.4,00.0,38.0,31.2,28.0,0000.0,0022.78,0007.17,0005.88
2022-07-18 18:08:00,,0827.0,5.00,0.00,29.4,27.5,00.0,38.0,31.2,28.0,0000.0,0023.52,0007.07,0005.87
2022-07-18 18:09:00,,0827.0,4.99,0.00,29.4,27.7,00.0,38.1,31.2,28.6,0000.0,0023.06,0007.09,0005.87
2022-07-18 18:10:00,,0827.1,5.00,0.00,29.4,27.9,00.0,38.1,31.3,28.1,0000.0,0022.56,0007.10,0005.88
2022-07-18 18:11:00,,0827.3,5.00,0.00,29.4,28.1,00.0,38.1,31.4,27.0,0000.0,0023.02,0007.14,0005.90
2022-07-18 18:12:00,,0827.0,5.02,0.00,29.5,27.9,00.0,38.0,31.4,27.1,0000.0,0022.59,0007.21,0005.89
2022-07-18 18:13:00,,0827.1,5.00,0.00,29.5,27.4,00.0,38.0,31.3,27.7,0000.0,0022.47,0007.26,0005.90
2022-07-18 18:14:00,,0827.0,4.99,0.00,29.4,27.3,00.0,38.0,31.3,26.3,0000.0,0022.08,0007.24,0005.89
2022-07-18 18:15:00,,0826.9,5.00,0.00,29.4,27.4,00.0,38.0,31.2,25.1,0000.0,0021.17,0007.17,0005.86
2022-07-18 18:16:00,,0827.0,5.01,0.00,29.4,27.6,00.0,38.0,31.2,24.9,0000.0,0020.92,0007.09,0005.83
2022-07-18 18:17:00,,0827.0,4.99,0.00,29.4,27.8,00.0,38.1,31.3,25.4,0000.0,0020.24,0007.01,0005.81
2022-07-18 18:18:00,,0827.0,5.01,0.00,29.4,28.0,00.0,38.1,31.3,26.0,0000.0,0020.71,0006.94,0005.78
2022-07-18 18:19:00,,0826.9,4.99,0.00,29.4,28.0,00.0,38.1,31.4,24.1,0000.0,0019.49,0006.90,0005.76
2022-07-18 18:20:00,,0827.0,5.00,0.00,29.4,27.5,00.0,38.0,31.3,22.9,0000.0,0019.03,0006.82,0005.72
2022-07-18 18:21:00,,0827.0,5.01,0.00,29.4,27.2,00.0,38.0,31.3,20.1,0000.0,0018.45,0006.69,0005.66
2022-07-18 18:22:00,,0826.8,5.00,0.00,29.4,27.3,00.0,38.0,31.2,19.9,0000.0,0017.86,0006.54,0005.59
2022-07-18 18:23:00,,0826.9,5.00,0.00,29.4,27.5,00.0,38.0,31.2,19.7,0000.0,0017.38,0006.38,0005.53
2022-07-18 18:24:00,,0827.0,5.00,0.00,29.4,27.7,00.0,38.0,31.2,20.1,0000.0,0016.53,0006.25,0005.46
2022-07-18 18:25:00,,0827.0,4.99,0.00,29.4,27.9,00.0,38.0,31.3,20.2,0000.0,0015.63,0006.14,0005.40
2022-07-18 18:26:00,,0826.9,5.00,0.00,29.4,28.0,00.0,38.1,31.3,20.3,0000.0,0014.11,0005.99,0005.35
2022-07-18 18:27:00,,0826.7,5.01,0.00,29.4,27.8,00.0,38.0,31.4,19.8,0000.0,0013.63,0005.92,0005.32
2022-07-18 18:28:00,,0826.7,5.00,0.00,29.4,27.3,00.0,38.0,31.3,19.6,0000.0,0012.92,0005.82,0005.29
2022-07-18 18:29:00,,0826.6,5.00,0.00,29.4,27.3,00.0,38.0,31.3,19.7,0000.0,0012.54,0005.77,0005.26
2022-07-18 18:30:00,,0826.6,5.00,0.00,29.4,27.5,00.0,38.0,31.2,21.0,0000.0,0012.16,0005.73,0005.24
2022-07-18 18:31:00,,0826.7,4.99,0.00,29.4,27.6,00.0,38.0,31.2,24.2,0000.0,0011.67,0005.70,0005.23
2022-07-18 18:32:00,,0826.7,5.01,0.00,29.4,27.9,00.0,38.0,31.3,21.6,0000.0,0012.21,0005.75,0005.24
2022-07-18 18:33:00,,0826.7,4.99,0.00,29.4,28.1,00.0,38.1,31.3,23.7,0000.0,0012.47,0005.77,0005.25
2022-07-18 18:34:00,,0826.7,5.01,0.00,29.5,28.2,00.0,38.1,31.4,21.4,0000.0,0012.65,0005.85,0005.28
2022-07-18 18:35:00,,0826.6,5.01,0.00,29.5,27.9,00.0,38.0,31.4,19.9,0000.0,0013.75,0005.90,0005.30
2022-07-18 18:36:00,,0826.7,4.99,0.00,29.5,27.5,00.0,38.0,31.4,19.8,0000.0,0014.01,0005.91,0005.32
2022-07-18 18:37:00,,0826.7,5.01,0.00,29.5,27.5,00.0,38.0,31.3,19.2,0000.0,0013.59,0005.95,0005.34
2022-07-18 18:38:00,,0826.7,5.00,0.00,29.4,27.6,00.0,38.0,31.3,19.5,0000.0,0013.49,0005.95,0005.34
2022-07-18 18:39:00,,0826.8,5.00,0.00,29.4,27.8,00.0,38.1,31.3,20.6,0000.0,0013.39,0005.97,0005.35
2022-07-18 18:40:00,,0826.8,4.99,0.00,29.5,28.0,00.0,38.1,31.4,20.1,0000.0,0013.09,0005.97,0005.35
2022-07-18 18:41:00,,0826.7,5.01,0.00,29.5,27.9,00.0,38.1,31.4,19.5,0000.0,0012.63,0005.97,0005.35
2022-07-18 18:42:00,,0826.7,4.99,0.00,29.5,27.4,00.0,38.0,31.4,18.8,0000.0,0012.57,0005.96,0005.34
2022-07-18 18:43:00,,0826.7,4.99,0.00,29.5,27.3,00.0,38.0,31.3,18.9,0000.0,0011.99,0005.93,0005.34
2022-07-18 18:44:00,,0826.7,5.00,0.00,29.4,27.4,00.0,38.0,31.3,19.2,0000.0,0011.50,0005.92,0005.35
2022-07-18 18:45:00,,0826.7,5.01,0.00,29.4,27.5,00.0,38.0,31.2,19.5,0000.0,0010.93,0005.90,0005.34
2022-07-18 18:46:00,,0826.7,5.00,0.00,29.4,27.8,00.0,38.0,31.2,19.5,0000.0,0009.42,0005.82,0005.32
2022-07-18 18:47:00,,0826.7,5.00,0.00,29.4,27.9,00.0,38.0,31.3,19.5,0000.0,0008.93,0005.81,0005.32
2022-07-18 18:48:00,,0826.7,5.00,0.00,29.4,27.5,00.0,38.0,31.3,19.3,0000.0,0008.96,0005.81,0005.31
2022-07-18 18:49:00,,0826.6,5.00,0.00,29.4,27.2,00.0,38.0,31.3,18.1,0000.0,0008.89,0005.79,0005.30
2022-07-18 18:50:00,,0826.7,5.00,0.00,29.4,27.3,00.0,38.0,31.2,18.1,0000.0,0008.84,0005.77,0005.29
2022-07-18 18:51:00,,0826.7,5.00,0.00,29.4,27.4,00.0,38.0,31.2,18.0,0000.0,0008.81,0005.76,0005.28
2022-07-18 18:52:00,,0826.7,5.01,0.00,29.4,27.6,00.0,38.0,31.2,18.5,0000.0,0008.75,0005.75,0005.27
2022-07-18 18:53:00,,0826.7,4.99,0.00,29.4,27.9,00.0,38.0,31.3,19.1,0000.0,0009.29,0005.69,0005.24
2022-07-18 18:54:00,,0826.7,5.00,0.00,29.4,28.0,00.0,38.0,31.3,19.3,0000.0,0009.28,0005.66,0005.22
2022-07-18 18:55:00,,0826.7,5.01,0.00,29.4,27.5,00.0,38.0,31.3,18.7,0000.0,0009.39,0005.68,0005.20
2022-07-18 18:56:00,,0826.7,5.00,0.00,29.4,27.2,00.0,37.9,31.2,18.9,0000.0,0009.31,0005.65,0005.18
2022-07-18 18:57:00,,0826.6,4.99,0.00,29.4,27.3,00.0,37.9,31.2,18.9,0000.0,0009.35,0005.65,0005.17
2022-07-18 18:58:00,,0826.6,5.00,0.00,29.3,27.4,00.0,38.0,31.1,19.1,0000.0,0009.45,0005.69,0005.17
2022-07-18 18:59:00,,0826.5,4.99,0.00,29.3,27.6,00.0,38.0,31.2,19.3,0000.0,0009.46,0005.72,0005.16
